DELTA 1 DEB, 2223

Orbit data source: Space-Track

DELTA 1 DEB, 2223 is space debris in SSO originally from a launch on Mon, 28 Feb 1966 UTC launched from the Air Force Eastern Test Range (AFETR). Debris objects in space refer to the collection of defunct objects orbiting the Earth. Examples of debris include non-operational satellites, rocket bodies, and fragments generated from explosions, collisions, or faulty payload assembly.

Loading next visibility...
Identifier
2223, 1966-016C
Orbit
SSO
Country
Flag of USUS
Related business
Manufacturer
Unknown
Mission
Spacecraft
Bus & Motor
Unknown
Mass
1 kg wet, 1 kg dry
Launch date (UTC)
1966-02-28 (60 years ago)
Launch vehicle
Unknown
Launch site
Air Force Eastern Test Range (AFETR)
Object type
Payload
Rocket body
Debris
Shape & HBR
Unknown
Radar Cross Section
Small (<0.1 m²)

Expand to show TLE details & history
Last TLE update: 1 day ago

TLE from 1 day ago
0 DELTA 1 DEB
1 02223U 66016C   26127.05041216 -.00000036  00000-0  30860-4 0  9996
2 02223 100.7311 157.0515 0092998 301.0308 116.4294 12.87771837821661
Epoch: 2026-05-07T01:12Z
TLE epoch observation values (Epoch: 2026-05-07T01:12:35.610Z)
Latitude
56.91005°
Longitude
-102.81985°
Altitude
1,352.124 km
Speed
7.172 km/s
True Right ascension
09h 20m 55s
True Declination
56° 45' 53"
Sunlit
Object was in daylight at epoch
Visualization orbit readout
Latitude
Unknown
Longitude
Unknown
Altitude
Unknown
Speed
Unknown
Apparent Right ascension
Unknown
Apparent Declination
Unknown
Sunlit
N/A
Visualization observer readout
Local Sidereal Time
10:39:24
Azimuth
Unknown
Elevation
Unknown
Doppler factor
Unknown
Orbital elements
Apogee altitude
1,379.296 km
Perigee altitude
1,236.341 km
Semi-major axis
7,685.955 km
Eccentricity
0.0093
Inclination
100.7311°
RAAN
157.0515°
Arg. of periapsis
301.0308°
True anomaly
117.37874°
Mean anomaly
116.4294°
Eccentric anomaly
116.90457°
Mean motion
3.22104 °/min
Orbital period
111.77 mins
BSTAR
0.00003086
Loading maneuver chart data...
Computing Atmospheric mass density...
Loading historical data...
Loading historical data...
Loading historical data...
Loading historical data...
Loading historical data...
Loading historical data...
Loading historical data...
Other satellites on launch #16 in the year 1966 (1966-02-28 UTC)

Documentation

Showing up to 5 results
|